Regional Weather Roundup
Issued by NWS Charleston, WV

Home | Current Version | Previous Version | Text Only | Print | Product List | Glossary On
Versions: 1 2 3 4 5 6 7 8 9 10 11 12 13 14 15 16 17 18 19 20 21 22 23 24 25 26 27 28 29 30 31 32 33 34 35 36 37 38 39 40 41 42 43 44 45 46 47 48 49 50
000
ASUS41 KRLX 260410
RWRRLX
West Virginia Regional Weather Roundup
National Weather Service Charleston WV
1200 AM EDT SUN APR 26 2015

Note: "fair" indicates few or no clouds below 12,000 feet with no
significant weather and/or obstructions to visibility.

WVZ003-260500-
Northern Panhandle of West Virginia

CITY           SKY/WX    TMP DP  RH WIND       PRES   REMARKS
WHEELING       CLOUDY    43  37  79 CALM      29.67F
$$

WVZ009-260500-
Northwest West Virginia

CITY           SKY/WX    TMP DP  RH WIND       PRES   REMARKS
PARKERSBURG    MOCLDY    41  39  93 NE6       29.69S
$$

WVZ006-260500-
Western West Virginia

CITY           SKY/WX    TMP DP  RH WIND       PRES   REMARKS
HUNTINGTON     LGT RAIN  43  43 100 NE10      29.61R
$$

WVZ015-260500-
West Central West Virginia

CITY           SKY/WX    TMP DP  RH WIND       PRES   REMARKS
CHARLESTON     RAIN      46  44  93 NE7       29.61S FOG
$$

WVZ022-031-260500-
North Central West Virginia

CITY           SKY/WX    TMP DP  RH WIND       PRES   REMARKS
CLARKSBURG     CLOUDY    41  39  93 NE7       29.65S
MORGANTOWN     CLOUDY    42  35  76 NE3       29.68R
$$

WVZ025-035-042-045-260500-
Southern West Virginia

CITY           SKY/WX    TMP DP  RH WIND       PRES   REMARKS
BECKLEY        HVY RAIN  45  43  93 CALM      29.59S FOG
LOGAN          CLOUDY    48  48 100 MISG      29.56F FOG
BLUEFIELD      LGT RAIN  46  42  86 NE5       29.61R FOG
LEWISBURG      CLOUDY    42  40  93 NE6       29.64S
$$

WVZ047-260500-
Northern Mountains of West Virginia

CITY           SKY/WX    TMP DP  RH WIND       PRES   REMARKS
ELKINS         MOCLDY    39  37  92 CALM      29.62F FOG
$$

WVZ052-260500-
Eastern Panhandle of West Virginia

CITY           SKY/WX    TMP DP  RH WIND       PRES   REMARKS
MARTINSBURG    CLOUDY    40  37  89 CALM      29.71F
PETERSBURG     CLOUDY    38  33  81 CALM      29.72S
$$


USA.gov is the U.S. government's official web portal to all federal, state and local government web resources and services.